Location: Dompnac
(44.5644°N, 4.1026°E)
Time: 18:53:01
(UTC+00:00)

Cosmos 1634 Rocket - Pass Details

Date: 17 January 2021
Orbit: 961 x 991 km, 82.9° (Epoch: 05 March)

Event Time Altitude Azimuth Distance (km) Brightness Sun altitude
Rises 05:58:48 0° 171° (S) 3,633 7.3 -13.5°
Reaches altitude 10° 06:01:20 10° 167° (SSE) 2,689 6.7 -13.0°
Maximum altitude 06:07:18 54° 92° (E) 1,154 4.8 -12.0°
Drops below altitude 10° 06:13:17 10° 17° (NNE) 2,707 6.3 -11.0°
Sets 06:15:50 0° 13° (NNE) 3,659 6.9 -10.6°
